Београд, метеограме

Београд: време по сату
Уторак, 10 Децембра
Време Падавине Температура Осећа се Притисак Влажност Ветар
18:00 0.63 мм +6.3° +6.5° 754.000 мм.ж.с 92% 4 м/с, С
19:00 0.63 мм +6.3° +6.5° 754.000 мм.ж.с 92% 4 м/с, С
20:00 0.6 мм +6.2° +6.4° 754.000 мм.ж.с 90% 4 м/с, С
21:00 0.6 мм +6.2° +6.3° 755.000 мм.ж.с 88% 5 м/с, С
22:00 0.6 мм +6.1° +6.2° 755.000 мм.ж.с 86% 6 м/с, С
23:00 0.16 мм +5.7° +5.7° 755.000 мм.ж.с 82% 5 м/с, С
Среда, 11 Децембра
Време Падавине Температура Осећа се Притисак Влажност Ветар
00:00 0.16 мм +5.4° +5.3° 755.000 мм.ж.с 79% 5 м/с, С
01:00 0.16 мм +5.1° +4.9° 755.000 мм.ж.с 75% 5 м/с, С
02:00 0.15 мм +4.7° +4.5° 755.000 мм.ж.с 76% 4 м/с, С
03:00 0.15 мм +4.3° +4.2° 755.000 мм.ж.с 77% 4 м/с, С
04:00 0.15 мм +3.9° +3.8° 755.000 мм.ж.с 78% 4 м/с, СЗ
05:00 0.07 мм +3.6° +3.5° 755.000 мм.ж.с 78% 3 м/с, СЗ
06:00 0.07 мм +3.3° +3.2° 755.000 мм.ж.с 79% 3 м/с, СЗ
07:00 0.07 мм +3° +2.9° 755.000 мм.ж.с 80% 3 м/с, СЗ
08:00 0.01 мм +3° +2.9° 755.000 мм.ж.с 80% 3 м/с, СЗ
09:00 0.01 мм +3.1° +3° 755.000 мм.ж.с 80% 3 м/с, СЗ
10:00 0.01 мм +3.1° +3° 755.000 мм.ж.с 80% 3 м/с, СЗ
11:00 0 мм +3.2° +3.1° 755.000 мм.ж.с 80% 3 м/с, СЗ
12:00 0 мм +3.4° +3.2° 754.000 мм.ж.с 80% 2 м/с, СЗ
13:00 0 мм +3.5° +3.4° 754.000 мм.ж.с 80% 2 м/с, СЗ
14:00 0 мм +3.6° +3.4° 753.000 мм.ж.с 80% 2 м/с, СЗ
15:00 0 мм +3.6° +3.5° 753.000 мм.ж.с 79% 2 м/с, СЗ
16:00 0 мм +3.7° +3.5° 752.000 мм.ж.с 79% 1 м/с, СЗ
17:00 0 мм +3.7° +3.6° 752.000 мм.ж.с 80% 1 м/с, СЗ
18:00 0 мм +3.8° +3.7° 752.000 мм.ж.с 80% 1 м/с, СЗ
19:00 0 мм +3.9° +3.8° 752.000 мм.ж.с 81% 1 м/с, СЗ
20:00 0 мм +4° +3.9° 751.000 мм.ж.с 81% 1 м/с, С
21:00 0 мм +4.2° +4.1° 751.000 мм.ж.с 82% 1 м/с, СИ
22:00 0 мм +4.3° +4.3° 750.000 мм.ж.с 82% 1 м/с, И
23:00 0 мм +4° +4° 750.000 мм.ж.с 84% 1 м/с, И
Четвтак, 12 Децембра
Време Падавине Температура Осећа се Притисак Влажност Ветар
00:00 0 мм +3.7° +3.7° 749.000 мм.ж.с 86% 1 м/с, ЈИ
01:00 0 мм +3.4° +3.4° 749.000 мм.ж.с 88% 1 м/с, ЈИ
02:00 0 мм +3.3° +3.4° 748.000 мм.ж.с 89% 1 м/с, ЈИ
03:00 0 мм +3.3° +3.3° 747.000 мм.ж.с 89% 2 м/с, ЈИ
04:00 0 мм +3.2° +3.3° 747.000 мм.ж.с 90% 2 м/с, ЈИ
05:00 0 мм +3.2° +3.2° 747.000 мм.ж.с 90% 2 м/с, ЈИ
06:00 0 мм +3.1° +3.2° 747.000 мм.ж.с 90% 2 м/с, Ј
07:00 0 мм +3.1° +3.1° 747.000 мм.ж.с 90% 1 м/с, Ј
08:00 0 мм +3.9° +3.9° 747.000 мм.ж.с 87% 1 м/с, Ј
09:00 0 мм +4.7° +4.6° 747.000 мм.ж.с 83% 1 м/с, Ј
10:00 0 мм +5.4° +5.4° 747.000 мм.ж.с 80% 2 м/с, Ј
11:00 0 мм +6.2° +6.1° 747.000 мм.ж.с 77% 2 м/с, Ј
12:00 0 мм +7° +6.9° 747.000 мм.ж.с 74% 2 м/с, ЈЗ
13:00 0 мм +7.8° +7.7° 746.000 мм.ж.с 71% 2 м/с, ЈЗ
14:00 0 мм +7.1° +7° 746.000 мм.ж.с 73% 2 м/с, ЈЗ
15:00 0 мм +6.4° +6.3° 746.000 мм.ж.с 76% 2 м/с, З
16:00 0 мм +5.7° +5.6° 746.000 мм.ж.с 79% 1 м/с, З
17:00 0.03 мм +5.4° +5.4° 746.000 мм.ж.с 79% 2 м/с, СЗ

Такође

Meteograms hourly weather Мапе времена Преглед времена
Meteograms hourly weather Мапе времена Преглед времена
 
Време у Србији:
О проjекту
© meteoprog.rs 2003-2019.
Meteoprog.ua - погода в Украине 0.0542
sitemap